| time (UTC) | temp F | wind direction | speed MPH | gust MPH | rain 1hr in | rain 24hr in | rain mn in | humidity % | barometer mb |
| 20260508155545 | 70 | 97 | 1.0 | 3.0 | 0.00 | 0.00 | 0.00 | 73 | 1013.1 |
| 20260508155046 | 70 | 96 | 1.0 | 3.0 | 0.00 | 0.00 | 0.00 | 73 | 1013.2 |
| 20260508154545 | 70 | 95 | 1.0 | 3.0 | 0.00 | 0.00 | 0.00 | 74 | 1013.2 |
| 20260508154045 | 70 | 95 | 0.0 | 3.0 | 0.00 | 0.00 | 0.00 | 74 | 1013.3 |
| 20260508153545 | 69 | 96 | 0.0 | 3.0 | 0.00 | 0.00 | 0.00 | 74 | 1013.4 |
| 20260508153047 | 69 | 96 | 1.0 | 3.0 | 0.00 | 0.00 | 0.00 | 75 | 1013.3 |
| 20260508152545 | 69 | 94 | 1.0 | 3.0 | 0.00 | 0.00 | 0.00 | 75 | 1013.5 |
| 20260508152044 | 68 | 94 | 1.0 | 3.0 | 0.00 | 0.00 | 0.00 | 75 | 1013.5 |
| 20260508151546 | 68 | 94 | 1.0 | 3.0 | 0.00 | 0.00 | 0.00 | 75 | 1013.5 |
| 20260508151046 | 68 | 128 | 1.0 | 4.0 | 0.00 | 0.00 | 0.00 | 75 | 1013.6 |
| 20260508150545 | 68 | 127 | 2.0 | 4.0 | 0.00 | 0.00 | 0.00 | 75 | 1013.6 |
| 20260508150045 | 67 | 152 | 2.0 | 7.0 | 0.00 | 0.00 | 0.00 | 76 | 1013.7 |
| 20260508145545 | 67 | 148 | 2.0 | 7.0 | 0.00 | 0.00 | 0.00 | 75 | 1013.8 |
| 20260508145043 | 67 | 137 | 2.0 | 5.0 | 0.00 | 0.00 | 0.00 | 75 | 1013.8 |
| 20260508144543 | 67 | 135 | 3.0 | 6.0 | 0.00 | 0.00 | 0.00 | 76 | 1013.7 |
| 20260508144309 | 66 | 153 | 3.0 | 6.0 | 0.00 | 0.00 | 0.00 | 76 | 1013.7 |
| 20260508143531 | 66 | 144 | 2.0 | 5.0 | 0.00 | 0.00 | 0.00 | 76 | 1013.7 |
| 20260508143026 | 66 | 142 | 2.0 | 5.0 | 0.00 | 0.00 | 0.00 | 77 | 1013.7 |
| 20260508142520 | 65 | 142 | 3.0 | 6.0 | 0.00 | 0.00 | 0.00 | 77 | 1013.5 |
| 20260508142013 | 65 | 98 | 2.0 | 6.0 | 0.00 | 0.00 | 0.00 | 77 | 1013.5 |
| 20260508141507 | 65 | 161 | 2.0 | 5.0 | 0.00 | 0.00 | 0.00 | 78 | 1013.7 |
| 20260508141233 | 65 | 109 | 1.0 | 4.0 | 0.00 | 0.00 | 0.00 | 78 | 1013.8 |
| 20260508140455 | 64 | 94 | 1.0 | 4.0 | 0.00 | 0.00 | 0.00 | 78 | 1013.7 |
| 20260508140220 | 64 | 92 | 2.0 | 4.0 | 0.00 | 0.00 | 0.00 | 78 | 1013.8 |
| 20260508135444 | 64 | 34 | 2.0 | 4.0 | 0.00 | 0.00 | 0.00 | 78 | 1013.8 |
| 20260508134937 | 64 | 25 | 2.0 | 4.0 | 0.00 | 0.00 | 0.00 | 78 | 1013.8 |
| 20260508134431 | 64 | 16 | 1.0 | 4.0 | 0.00 | 0.00 | 0.00 | 79 | 1013.9 |
| 20260508133925 | 64 | 17 | 1.0 | 3.0 | 0.00 | 0.00 | 0.00 | 79 | 1014.0 |
| 20260508133419 | 64 | 14 | 1.0 | 3.0 | 0.00 | 0.00 | 0.00 | 79 | 1013.9 |
| 20260508132913 | 63 | 13 | 0.0 | 3.0 | 0.00 | 0.00 | 0.00 | 78 | 1014.0 |
| 20260508132407 | 63 | 13 | 0.0 | 2.0 | 0.00 | 0.00 | 0.00 | 79 | 1014.1 |
| 20260508131901 | 63 | 13 | 0.0 | 2.0 | 0.00 | 0.00 | 0.00 | 79 | 1014.2 |
| 20260508131356 | 63 | 13 | 0.0 | 2.0 | 0.00 | 0.00 | 0.00 | 79 | 1014.1 |
| 20260508130849 | 63 | 13 | 0.0 | 3.0 | 0.00 | 0.00 | 0.00 | 79 | 1013.7 |
| 20260508130343 | 63 | 13 | 0.0 | 3.0 | 0.00 | 0.00 | 0.00 | 78 | 1013.8 |
| 20260508125837 | 63 | 13 | 0.0 | 1.0 | 0.00 | 0.00 | 0.00 | 78 | 1013.8 |
| 20260508125331 | 63 | 13 | 0.0 | 2.0 | 0.00 | 0.00 | 0.00 | 78 | 1013.9 |
| 20260508124825 | 63 | 13 | 1.0 | 3.0 | 0.00 | 0.00 | 0.00 | 78 | 1014.0 |
| 20260508124319 | 63 | 13 | 1.0 | 3.0 | 0.00 | 0.00 | 0.00 | 78 | 1014.0 |
| 20260508123813 | 63 | 13 | 0.0 | 2.0 | 0.00 | 0.00 | 0.00 | 78 | 1014.2 |
| 20260508123538 | 63 | 13 | 0.0 | 2.0 | 0.00 | 0.00 | 0.00 | 78 | 1014.0 |
| 20260508122801 | 63 | 13 | 1.0 | 3.0 | 0.00 | 0.00 | 0.00 | 78 | 1013.9 |
| 20260508122255 | 63 | 13 | 1.0 | 3.0 | 0.00 | 0.00 | 0.00 | 78 | 1013.9 |
| 20260508121749 | 63 | 13 | 0.0 | 4.0 | 0.00 | 0.00 | 0.00 | 78 | 1013.9 |
| 20260508121245 | 63 | 13 | 0.0 | 4.0 | 0.00 | 0.00 | 0.00 | 78 | 1014.0 |
| 20260508120736 | 63 | 14 | 0.0 | 0.0 | 0.00 | 0.00 | 0.00 | 79 | 1014.2 |
| 20260508120231 | 63 | 14 | 0.0 | 0.0 | 0.00 | 0.00 | 0.00 | 78 | 1014.4 |
| 20260508115725 | 63 | 14 | 0.0 | 2.0 | 0.00 | 0.00 | 0.00 | 79 | 1014.4 |
| 20260508115219 | 63 | 14 | 0.0 | 2.0 | 0.00 | 0.00 | 0.00 | 79 | 1014.4 |
| 20260508114713 | 63 | 14 | 0.0 | 1.0 | 0.00 | 0.00 | 0.00 | 78 | 1014.5 |
| 20260508114208 | 63 | 14 | 0.0 | 1.0 | 0.00 | 0.00 | 0.00 | 78 | 1014.6 |
| 20260508113701 | 63 | 14 | 0.0 | 1.0 | 0.00 | 0.00 | 0.00 | 78 | 1014.5 |
| 20260508113426 | 63 | 14 | 0.0 | 0.0 | 0.00 | 0.00 | 0.00 | 78 | 1014.7 |
| 20260508112649 | 63 | 14 | 0.0 | 0.0 | 0.00 | 0.00 | 0.00 | 78 | 1014.6 |
| 20260508112145 | 63 | 14 | 0.0 | 1.0 | 0.00 | 0.00 | 0.00 | 78 | 1014.6 |
| 20260508112140 | 63 | 14 | 0.0 | 1.0 | 0.00 | 0.00 | 0.00 | 78 | 1014.5 |
| 20260508111132 | 62 | 14 | 0.0 | 2.0 | 0.00 | 0.00 | 0.00 | 78 | 1014.5 |
| 20260508110627 | 63 | 14 | 0.0 | 2.0 | 0.00 | 0.00 | 0.00 | 78 | 1014.4 |
| 20260508110622 | 62 | 14 | 0.0 | 0.0 | 0.00 | 0.00 | 0.00 | 78 | 1014.4 |
| 20260508105612 | 62 | 14 | 0.0 | 0.0 | 0.00 | 0.00 | 0.00 | 78 | 1014.4 |
| 20260508105107 | 62 | 14 | 0.0 | 1.0 | 0.00 | 0.00 | 0.00 | 78 | 1014.2 |
| 20260508104601 | 62 | 14 | 0.0 | 1.0 | 0.00 | 0.00 | 0.00 | 78 | 1014.1 |
| 20260508104055 | 62 | 14 | 0.0 | 2.0 | 0.00 | 0.00 | 0.00 | 78 | 1014.3 |
| 20260508103549 | 63 | 14 | 0.0 | 2.0 | 0.00 | 0.00 | 0.00 | 78 | 1014.5 |
| 20260508103043 | 62 | 14 | 0.0 | 2.0 | 0.00 | 0.00 | 0.00 | 78 | 1014.4 |
| 20260508102537 | 63 | 14 | 0.0 | 3.0 | 0.00 | 0.00 | 0.00 | 78 | 1014.5 |
| 20260508102031 | 62 | 14 | 0.0 | 3.0 | 0.00 | 0.00 | 0.00 | 78 | 1014.1 |
| 20260508101525 | 63 | 15 | 1.0 | 4.0 | 0.00 | 0.00 | 0.00 | 78 | 1014.3 |
| 20260508101019 | 63 | 15 | 1.0 | 4.0 | 0.00 | 0.00 | 0.00 | 78 | 1014.2 |
| 20260508100513 | 63 | 24 | 0.0 | 4.0 | 0.00 | 0.00 | 0.00 | 78 | 1014.2 |
| 20260508100007 | 63 | 51 | 0.0 | 2.0 | 0.00 | 0.00 | 0.00 | 78 | 1014.5 |
| 20260508095731 | 63 | 51 | 0.0 | 2.0 | 0.00 | 0.00 | 0.00 | 78 | 1014.3 |
| 20260508094954 | 63 | 51 | 1.0 | 3.0 | 0.00 | 0.00 | 0.00 | 78 | 1014.3 |
| 20260508094450 | 63 | 51 | 1.0 | 3.0 | 0.00 | 0.00 | 0.00 | 78 | 1014.2 |
| 20260508093943 | 63 | 51 | 0.0 | 3.0 | 0.00 | 0.00 | 0.00 | 78 | 1014.4 |
| 20260508093438 | 63 | 51 | 0.0 | 3.0 | 0.00 | 0.00 | 0.00 | 78 | 1014.5 |
| 20260508092932 | 63 | 52 | 0.0 | 1.0 | 0.00 | 0.00 | 0.00 | 78 | 1014.7 |
| 20260508092425 | 63 | 52 | 0.0 | 2.0 | 0.00 | 0.00 | 0.00 | 77 | 1014.7 |
| 20260508091921 | 63 | 52 | 0.0 | 2.0 | 0.00 | 0.00 | 0.00 | 77 | 1014.6 |
| 20260508091915 | 63 | 53 | 0.0 | 1.0 | 0.00 | 0.00 | 0.00 | 77 | 1014.5 |
| 20260508090907 | 63 | 53 | 0.0 | 1.0 | 0.00 | 0.00 | 0.00 | 77 | 1014.4 |
| 20260508090401 | 63 | 53 | 0.0 | 1.0 | 0.00 | 0.00 | 0.00 | 77 | 1014.2 |
| 20260508085856 | 63 | 53 | 0.0 | 0.0 | 0.00 | 0.00 | 0.00 | 77 | 1013.9 |
| 20260508085348 | 63 | 53 | 0.0 | 0.0 | 0.00 | 0.00 | 0.00 | 77 | 1013.9 |
| 20260508084846 | 63 | 53 | 0.0 | 0.0 | 0.00 | 0.00 | 0.00 | 77 | 1013.9 |
| 20260508084346 | 63 | 53 | 0.0 | 0.0 | 0.00 | 0.00 | 0.00 | 77 | 1014.2 |
| 20260508083846 | 63 | 53 | 0.0 | 0.0 | 0.00 | 0.00 | 0.00 | 76 | 1014.1 |
| 20260508083345 | 63 | 53 | 0.0 | 0.0 | 0.00 | 0.00 | 0.00 | 76 | 1014.1 |
| 20260508082845 | 63 | 53 | 0.0 | 0.0 | 0.00 | 0.00 | 0.00 | 76 | 1014.2 |
| 20260508082343 | 63 | 53 | 0.0 | 0.0 | 0.00 | 0.00 | 0.00 | 76 | 1014.2 |
| 20260508081841 | 63 | 53 | 0.0 | 0.0 | 0.00 | 0.00 | 0.00 | 76 | 1014.5 |
| 20260508081344 | 63 | 53 | 0.0 | 0.0 | 0.00 | 0.00 | 0.00 | 76 | 1014.3 |
| 20260508081113 | 63 | 53 | 0.0 | 0.0 | 0.00 | 0.00 | 0.00 | 76 | 1014.3 |
| 20260508080341 | 63 | 53 | 0.0 | 1.0 | 0.00 | 0.00 | 0.00 | 76 | 1014.4 |
| 20260508080112 | 63 | 53 | 0.0 | 2.0 | 0.00 | 0.00 | 0.00 | 76 | 1014.5 |
| 20260508075343 | 62 | 53 | 0.0 | 2.0 | 0.00 | 0.00 | 0.00 | 76 | 1014.2 |
| 20260508075110 | 62 | 53 | 0.0 | 0.0 | 0.00 | 0.00 | 0.00 | 76 | 1014.1 |
| 20260508074337 | 62 | 53 | 0.0 | 0.0 | 0.00 | 0.00 | 0.00 | 76 | 1014.3 |
| 20260508073843 | 62 | 53 | 0.0 | 1.0 | 0.00 | 0.00 | 0.00 | 76 | 1014.4 |
| 20260508073838 | 62 | 53 | 0.0 | 1.0 | 0.00 | 0.00 | 0.00 | 76 | 1014.3 |
| 20260508072839 | 62 | 52 | 0.0 | 2.0 | 0.00 | 0.00 | 0.00 | 76 | 1014.3 |
| 20260508072337 | 62 | 52 | 1.0 | 3.0 | 0.00 | 0.00 | 0.00 | 76 | 1014.3 |
| 20260508071838 | 62 | 51 | 1.0 | 3.0 | 0.00 | 0.00 | 0.00 | 76 | 1014.1 |
| 20260508071339 | 62 | 52 | 1.0 | 3.0 | 0.00 | 0.00 | 0.00 | 76 | 1014.3 |
| 20260508070839 | 62 | 53 | 1.0 | 4.0 | 0.00 | 0.00 | 0.00 | 76 | 1014.5 |
| 20260508070335 | 62 | 53 | 1.0 | 4.0 | 0.00 | 0.00 | 0.00 | 76 | 1014.3 |
| 20260508065835 | 62 | 53 | 1.0 | 4.0 | 0.00 | 0.00 | 0.00 | 77 | 1014.3 |
| 20260508065335 | 62 | 55 | 0.0 | 0.0 | 0.00 | 0.00 | 0.00 | 77 | 1014.6 |
| 20260508064834 | 62 | 55 | 0.0 | 0.0 | 0.00 | 0.00 | 0.00 | 77 | 1014.7 |
| 20260508064335 | 62 | 55 | 0.0 | 0.0 | 0.00 | 0.00 | 0.00 | 76 | 1014.8 |
| 20260508063833 | 62 | 55 | 0.0 | 0.0 | 0.00 | 0.00 | 0.00 | 76 | 1014.9 |
| 20260508063335 | 62 | 55 | 0.0 | 0.0 | 0.00 | 0.00 | 0.00 | 76 | 1015.0 |
| 20260508062833 | 62 | 55 | 0.0 | 0.0 | 0.00 | 0.00 | 0.00 | 76 | 1015.4 |
| 20260508062335 | 62 | 55 | 0.0 | 0.0 | 0.00 | 0.00 | 0.00 | 76 | 1015.3 |
| 20260508061833 | 62 | 55 | 0.0 | 0.0 | 0.00 | 0.00 | 0.00 | 76 | 1015.2 |
| 20260508061335 | 62 | 55 | 0.0 | 0.0 | 0.00 | 0.00 | 0.00 | 76 | 1015.3 |
| 20260508060834 | 62 | 55 | 0.0 | 0.0 | 0.00 | 0.00 | 0.00 | 76 | 1015.2 |
| 20260508060334 | 62 | 55 | 0.0 | 0.0 | 0.00 | 0.00 | 0.00 | 75 | 1015.2 |
| 20260508060105 | 62 | 55 | 0.0 | 0.0 | 0.00 | 0.00 | 0.00 | 75 | 1015.0 |
| 20260508055334 | 62 | 55 | 0.0 | 0.0 | 0.00 | 0.00 | 0.00 | 75 | 1014.9 |
| 20260508054831 | 62 | 55 | 0.0 | 0.0 | 0.00 | 0.00 | 0.00 | 75 | 1015.0 |
| 20260508054331 | 62 | 55 | 0.0 | 0.0 | 0.00 | 0.00 | 0.00 | 75 | 1015.2 |
| 20260508053827 | 62 | 55 | 0.0 | 0.0 | 0.00 | 0.00 | 0.00 | 75 | 1015.2 |
| 20260508053327 | 62 | 55 | 0.0 | 0.0 | 0.00 | 0.00 | 0.00 | 75 | 1015.4 |
| 20260508052823 | 62 | 55 | 0.0 | 0.0 | 0.00 | 0.00 | 0.00 | 75 | 1015.2 |
| 20260508052552 | 63 | 55 | 0.0 | 0.0 | 0.00 | 0.00 | 0.00 | 74 | 1015.1 |
| 20260508051820 | 62 | 55 | 0.0 | 0.0 | 0.00 | 0.00 | 0.00 | 75 | 1015.1 |
| 20260508051547 | 62 | 55 | 0.0 | 0.0 | 0.00 | 0.00 | 0.00 | 74 | 1015.0 |
| 20260508050818 | 62 | 55 | 0.0 | 2.0 | 0.00 | 0.00 | 0.00 | 74 | 1014.8 |
| 20260508050547 | 63 | 55 | 1.0 | 2.0 | 0.00 | 0.00 | 0.00 | 74 | 1014.8 |
| 20260508045814 | 63 | 55 | 1.0 | 2.0 | 0.00 | 0.00 | 0.00 | 74 | 1015.0 |
| 20260508045313 | 63 | 55 | 0.0 | 2.0 | 0.00 | 0.00 | 0.00 | 74 | 1015.2 |
| 20260508044812 | 63 | 55 | 0.0 | 3.0 | 0.00 | 0.00 | 0.00 | 74 | 1015.3 |
| 20260508044312 | 63 | 55 | 1.0 | 3.0 | 0.00 | 0.00 | 0.00 | 73 | 1016.0 |
| 20260508044041 | 63 | 56 | 1.0 | 3.0 | 0.00 | 0.00 | 0.00 | 73 | 1015.4 |
| 20260508043311 | 63 | 57 | 1.0 | 3.0 | 0.00 | 0.00 | 0.00 | 73 | 1014.4 |
| 20260508042811 | 63 | 55 | 0.0 | 3.0 | 0.00 | 0.00 | 0.00 | 73 | 1014.4 |
| 20260508042312 | 63 | 55 | 0.0 | 3.0 | 0.00 | 0.00 | 0.00 | 73 | 1015.0 |
| 20260508041811 | 63 | 55 | 1.0 | 3.0 | 0.00 | 0.00 | 0.00 | 73 | 1014.9 |
| 20260508041312 | 63 | 55 | 0.0 | 2.0 | 0.00 | 0.00 | 0.00 | 73 | 1015.1 |
| 20260508040811 | 63 | 55 | 0.0 | 1.0 | 0.00 | 0.00 | 0.00 | 73 | 1015.2 |
| 20260508040310 | 63 | 55 | 0.0 | 3.0 | 0.00 | 0.00 | 0.00 | 72 | 1015.4 |
| 20260508035809 | 63 | 55 | 0.0 | 3.0 | 0.00 | 0.00 | 0.00 | 72 | 1015.5 |
| 20260508035539 | 63 | 55 | 0.0 | 3.0 | 0.00 | 0.00 | 0.00 | 72 | 1015.6 |
| 20260508034810 | 63 | 55 | 1.0 | 3.0 | 0.00 | 0.00 | 0.00 | 72 | 1015.5 |
| 20260508034304 | 64 | 56 | 0.0 | 3.0 | 0.00 | 0.00 | 0.00 | 72 | 1015.6 |
| 20260508033805 | 64 | 55 | 1.0 | 3.0 | 0.00 | 0.00 | 0.00 | 72 | 1015.8 |
| 20260508033425 | 64 | 57 | 0.0 | 0.0 | 0.00 | 0.00 | 0.00 | 71 | 1016.3 |
| 20260508033309 | 64 | 56 | 1.0 | 3.0 | 0.00 | 0.00 | 0.00 | 72 | 1016.1 |
| 20260508033046 | 64 | 57 | 0.0 | 2.0 | 0.00 | 0.00 | 0.00 | 71 | 1016.3 |
| 20260508031805 | 64 | 57 | 0.0 | 0.0 | 0.00 | 0.00 | 0.00 | 71 | 1016.1 |
| 20260508031304 | 64 | 57 | 0.0 | 0.0 | 0.00 | 0.00 | 0.00 | 71 | 1016.1 |
| 20260508030804 | 64 | 57 | 0.0 | 0.0 | 0.00 | 0.00 | 0.00 | 70 | 1016.1 |
| 20260508030537 | 64 | 57 | 0.0 | 0.0 | 0.00 | 0.00 | 0.00 | 70 | 1016.1 |
| 20260508025805 | 64 | 57 | 0.0 | 2.0 | 0.00 | 0.00 | 0.00 | 70 | 1015.4 |
| 20260508025801 | 64 | 57 | 0.0 | 0.0 | 0.00 | 0.00 | 0.00 | 70 | 1015.7 |
| 20260508025033 | 64 | 57 | 1.0 | 4.0 | 0.00 | 0.01 | 0.00 | 69 | 1015.4 |
| 20260508024300 | 64 | 57 | 1.0 | 4.0 | 0.00 | 0.01 | 0.00 | 69 | 1015.3 |
| 20260508023801 | 64 | 57 | 0.0 | 4.0 | 0.00 | 0.01 | 0.00 | 69 | 1015.4 |
| 20260508023300 | 64 | 95 | 0.0 | 3.0 | 0.00 | 0.01 | 0.00 | 69 | 1015.0 |
| 20260508022759 | 64 | 95 | 1.0 | 3.0 | 0.00 | 0.01 | 0.00 | 69 | 1014.6 |
| 20260508022301 | 64 | 89 | 1.0 | 4.0 | 0.00 | 0.01 | 0.00 | 68 | 1013.9 |
| 20260508021802 | 65 | 72 | 1.0 | 4.0 | 0.00 | 0.01 | 0.00 | 68 | 1014.0 |
| 20260508021300 | 65 | 21 | 1.0 | 5.0 | 0.00 | 0.01 | 0.00 | 68 | 1014.0 |
| 20260508020759 | 65 | 21 | 2.0 | 5.0 | 0.00 | 0.01 | 0.00 | 67 | 1014.0 |
| 20260508020254 | 65 | 38 | 2.0 | 5.0 | 0.00 | 0.01 | 0.00 | 67 | 1013.9 |
| 20260508020017 | 65 | 66 | 2.0 | 5.0 | 0.00 | 0.01 | 0.00 | 67 | 1013.9 |
| 20260508015247 | 65 | 65 | 2.0 | 8.0 | 0.00 | 0.01 | 0.00 | 66 | 1013.8 |
| 20260508014744 | 65 | 108 | 2.0 | 8.0 | 0.00 | 0.01 | 0.00 | 66 | 1013.6 |
| 20260508014514 | 65 | 36 | 2.0 | 7.0 | 0.00 | 0.01 | 0.00 | 65 | 1013.4 |
| 20260508013743 | 65 | 176 | 1.0 | 6.0 | 0.00 | 0.01 | 0.00 | 65 | 1013.7 |
| 20260508013245 | 65 | 132 | 1.0 | 5.0 | 0.00 | 0.01 | 0.00 | 65 | 1014.0 |
| 20260508012743 | 66 | 116 | 2.0 | 8.0 | 0.00 | 0.01 | 0.00 | 64 | 1014.0 |
| 20260508012243 | 66 | 129 | 2.0 | 8.0 | 0.00 | 0.01 | 0.00 | 64 | 1013.9 |
| 20260508011745 | 66 | 35 | 2.0 | 6.0 | 0.00 | 0.01 | 0.00 | 63 | 1014.4 |
| 20260508011241 | 66 | 18 | 2.0 | 6.0 | 0.00 | 0.01 | 0.00 | 63 | 1014.7 |
| 20260508010741 | 66 | 338 | 1.0 | 5.0 | 0.00 | 0.01 | 0.00 | 63 | 1014.5 |
| 20260508010513 | 66 | 54 | 2.0 | 7.0 | 0.00 | 0.01 | 0.00 | 63 | 1014.4 |
| 20260508005742 | 66 | 53 | 3.0 | 7.0 | 0.00 | 0.01 | 0.00 | 62 | 1013.7 |
| 20260508005242 | 66 | 23 | 3.0 | 7.0 | 0.00 | 0.01 | 0.00 | 62 | 1014.0 |
| 20260508004741 | 67 | 12 | 2.0 | 7.0 | 0.00 | 0.01 | 0.00 | 62 | 1014.3 |
| 20260508004239 | 67 | 72 | 1.0 | 5.0 | 0.00 | 0.01 | 0.00 | 63 | 1013.8 |
| 20260508003737 | 67 | 78 | 1.0 | 4.0 | 0.00 | 0.01 | 0.00 | 62 | 1014.6 |
| 20260508003511 | 67 | 74 | 1.0 | 4.0 | 0.00 | 0.01 | 0.00 | 63 | 1014.5 |
| 20260508002731 | 67 | 45 | 1.0 | 3.0 | 0.00 | 0.01 | 0.00 | 63 | 1014.6 |
| 20260508002233 | 67 | 32 | 1.0 | 4.0 | 0.00 | 0.01 | 0.00 | 63 | 1014.7 |
| 20260508001732 | 67 | 32 | 2.0 | 4.0 | 0.00 | 0.01 | 0.00 | 62 | 1015.1 |
| 20260508001232 | 68 | 36 | 2.0 | 4.0 | 0.00 | 0.01 | 0.00 | 62 | 1014.9 |
| 20260508000733 | 68 | 186 | 1.0 | 4.0 | 0.00 | 0.01 | 0.00 | 62 | 1014.8 |
| 20260508000231 | 68 | 54 | 2.0 | 5.0 | 0.00 | 0.01 | 0.00 | 62 | 1015.0 |
| 20260507235729 | 68 | 28 | 3.0 | 7.0 | 0.00 | 0.01 | 0.00 | 61 | 1015.5 |
| 20260507235458 | 68 | 16 | 3.0 | 8.0 | 0.00 | 0.01 | 0.00 | 61 | 1015.4 |
| 20260507234727 | 68 | 14 | 3.0 | 8.0 | 0.00 | 0.01 | 0.00 | 62 | 1015.4 |
| 20260507234228 | 68 | 17 | 2.0 | 7.0 | 0.00 | 0.01 | 0.00 | 62 | 1015.6 |
| 20260507233728 | 68 | 22 | 3.0 | 9.0 | 0.00 | 0.01 | 0.00 | 62 | 1015.5 |
| 20260507233228 | 68 | 29 | 3.0 | 9.0 | 0.00 | 0.01 | 0.00 | 61 | 1015.4 |
| 20260507232727 | 68 | 349 | 3.0 | 8.0 | 0.00 | 0.01 | 0.00 | 62 | 1015.5 |
| 20260507232229 | 69 | 16 | 3.0 | 8.0 | 0.00 | 0.01 | 0.00 | 61 | 1015.6 |
| 20260507231725 | 69 | 38 | 3.0 | 8.0 | 0.00 | 0.01 | 0.00 | 62 | 1015.5 |
| 20260507231456 | 69 | 26 | 3.0 | 8.0 | 0.00 | 0.01 | 0.00 | 61 | 1015.5 |
| 20260507230726 | 69 | 183 | 2.0 | 7.0 | 0.00 | 0.01 | 0.00 | 61 | 1015.3 |
| 20260507230223 | 69 | 19 | 3.0 | 8.0 | 0.00 | 0.01 | 0.00 | 61 | 1015.4 |
| 20260507225724 | 69 | 13 | 3.0 | 8.0 | 0.00 | 0.01 | 0.00 | 61 | 1015.5 |
| 20260507225218 | 69 | 5 | 2.0 | 6.0 | 0.00 | 0.01 | 0.00 | 61 | 1015.7 |
| 20260507224711 | 69 | 83 | 2.0 | 8.0 | 0.00 | 0.01 | 0.00 | 61 | 1015.7 |
| 20260507224438 | 69 | 355 | 3.0 | 8.0 | 0.00 | 0.01 | 0.00 | 61 | 1015.6 |
| 20260507223659 | 69 | 355 | 3.0 | 8.0 | 0.00 | 0.01 | 0.00 | 60 | 1015.8 |
| 20260507223154 | 69 | 355 | 3.0 | 6.0 | 0.00 | 0.01 | 0.00 | 61 | 1015.9 |
| 20260507222648 | 69 | 0 | 2.0 | 6.0 | 0.00 | 0.01 | 0.00 | 60 | 1016.0 |
| 20260507222142 | 69 | 346 | 2.0 | 6.0 | 0.00 | 0.01 | 0.00 | 61 | 1016.0 |
| 20260507221636 | 69 | 355 | 2.0 | 6.0 | 0.00 | 0.01 | 0.00 | 61 | 1016.0 |
| 20260507221402 | 69 | 341 | 3.0 | 11.0 | 0.00 | 0.01 | 0.00 | 61 | 1016.0 |
| 20260507220624 | 69 | 25 | 3.0 | 11.0 | 0.00 | 0.01 | 0.00 | 61 | 1016.0 |
| 20260507220117 | 69 | 355 | 2.0 | 8.0 | 0.00 | 0.01 | 0.00 | 61 | 1016.0 |
| 20260507215615 | 69 | 11 | 2.0 | 5.0 | 0.00 | 0.01 | 0.00 | 61 | 1016.0 |
| 20260507215610 | 69 | 331 | 3.0 | 9.0 | 0.00 | 0.01 | 0.00 | 61 | 1015.9 |
| 20260507214830 | 69 | 13 | 4.0 | 11.0 | 0.00 | 0.01 | 0.00 | 61 | 1016.0 |
| 20260507214056 | 69 | 0 | 5.0 | 15.0 | 0.00 | 0.01 | 0.00 | 60 | 1016.0 |
| 20260507214051 | 69 | 26 | 3.0 | 10.0 | 0.00 | 0.01 | 0.00 | 60 | 1015.9 |
| 20260507213042 | 69 | 326 | 2.0 | 8.0 | 0.00 | 0.01 | 0.00 | 61 | 1016.1 |
| 20260507212536 | 69 | 18 | 4.0 | 10.0 | 0.00 | 0.01 | 0.00 | 61 | 1016.0 |
| 20260507212030 | 68 | 14 | 4.0 | 12.0 | 0.00 | 0.01 | 0.00 | 61 | 1015.7 |
| 20260507211525 | 68 | 15 | 5.0 | 14.0 | 0.00 | 0.01 | 0.00 | 62 | 1016.0 |
| 20260507211025 | 68 | 351 | 4.0 | 14.0 | 0.00 | 0.01 | 0.00 | 62 | 1016.1 |
| 20260507210526 | 68 | 347 | 5.0 | 11.0 | 0.00 | 0.01 | 0.00 | 62 | 1016.1 |
| 20260507210025 | 68 | 346 | 5.0 | 15.0 | 0.00 | 0.01 | 0.00 | 62 | 1015.8 |
| 20260507205526 | 68 | 355 | 4.0 | 15.0 | 0.00 | 0.01 | 0.00 | 62 | 1015.8 |
| 20260507205257 | 68 | 336 | 4.0 | 13.0 | 0.00 | 0.01 | 0.00 | 62 | 1015.9 |
| 20260507204525 | 68 | 337 | 5.0 | 14.0 | 0.00 | 0.01 | 0.00 | 62 | 1015.9 |
| 20260507204024 | 68 | 334 | 6.0 | 14.0 | 0.00 | 0.01 | 0.00 | 62 | 1016.1 |
| 20260507203756 | 68 | 355 | 5.0 | 12.0 | 0.00 | 0.01 | 0.00 | 62 | 1016.2 |
| 20260507203025 | 68 | 5 | 4.0 | 11.0 | 0.00 | 0.01 | 0.00 | 62 | 1016.7 |
| 20260507202524 | 69 | 19 | 4.0 | 10.0 | 0.00 | 0.01 | 0.00 | 63 | 1016.9 |
| 20260507202026 | 68 | 5 | 5.0 | 13.0 | 0.00 | 0.01 | 0.00 | 62 | 1017.0 |
| 20260507201527 | 69 | 342 | 6.0 | 13.0 | 0.00 | 0.01 | 0.00 | 61 | 1016.8 |
| 20260507201255 | 69 | 350 | 6.0 | 13.0 | 0.00 | 0.01 | 0.00 | 62 | 1016.9 |
| 20260507200756 | 69 | 0 | 6.0 | 14.0 | 0.00 | 0.01 | 0.00 | 62 | 1016.8 |
| 20260507200026 | 69 | 340 | 5.0 | 14.0 | 0.00 | 0.01 | 0.00 | 62 | 1016.7 |
| 20260507195521 | 69 | 5 | 4.0 | 11.0 | 0.00 | 0.01 | 0.00 | 65 | 1016.6 |
| 20260507195022 | 68 | 34 | 4.0 | 12.0 | 0.00 | 0.01 | 0.00 | 65 | 1016.9 |
| 20260507194522 | 67 | 142 | 5.0 | 13.0 | 0.00 | 0.01 | 0.00 | 66 | 1017.2 |
| 20260507194022 | 67 | 340 | 4.0 | 13.0 | 0.00 | 0.01 | 0.00 | 67 | 1017.1 |
| 20260507193520 | 67 | 333 | 5.0 | 11.0 | 0.00 | 0.01 | 0.00 | 67 | 1017.1 |
| 20260507193022 | 66 | 30 | 5.0 | 10.0 | 0.00 | 0.01 | 0.00 | 68 | 1016.9 |
| 20260507192522 | 66 | 5 | 4.0 | 10.0 | 0.00 | 0.01 | 0.00 | 68 | 1017.1 |
| 20260507192022 | 65 | 51 | 4.0 | 12.0 | 0.00 | 0.01 | 0.00 | 69 | 1017.3 |
| 20260507191521 | 65 | 11 | 4.0 | 12.0 | 0.00 | 0.01 | 0.00 | 69 | 1017.3 |
| 20260507191247 | 65 | 31 | 3.0 | 10.0 | 0.00 | 0.01 | 0.00 | 69 | 1017.3 |
| 20260507190519 | 65 | 149 | 2.0 | 6.0 | 0.00 | 0.01 | 0.00 | 69 | 1017.7 |
| 20260507190018 | 65 | 64 | 3.0 | 10.0 | 0.00 | 0.01 | 0.00 | 68 | 1017.3 |
| 20260507185518 | 66 | 5 | 4.0 | 10.0 | 0.00 | 0.01 | 0.00 | 67 | 1017.1 |
| 20260507185022 | 66 | 61 | 4.0 | 11.0 | 0.00 | 0.01 | 0.00 | 68 | 1017.6 |
| 20260507185016 | 66 | 34 | 4.0 | 11.0 | 0.00 | 0.01 | 0.00 | 68 | 1017.4 |
| 20260507184249 | 66 | 5 | 5.0 | 11.0 | 0.00 | 0.01 | 0.00 | 68 | 1017.7 |
| 20260507183517 | 66 | 350 | 4.0 | 11.0 | 0.00 | 0.01 | 0.00 | 69 | 1017.7 |
| 20260507183018 | 66 | 5 | 3.0 | 9.0 | 0.00 | 0.01 | 0.00 | 69 | 1017.8 |
| 20260507182517 | 65 | 5 | 3.0 | 9.0 | 0.00 | 0.01 | 0.00 | 69 | 1018.0 |
| 20260507182017 | 65 | 24 | 4.0 | 10.0 | 0.00 | 0.01 | 0.00 | 70 | 1017.8 |
| 20260507181518 | 65 | 0 | 5.0 | 13.0 | 0.00 | 0.01 | 0.00 | 70 | 1017.9 |
| 20260507181017 | 65 | 32 | 5.0 | 13.0 | 0.00 | 0.01 | 0.00 | 71 | 1018.0 |
| 20260507180516 | 64 | 342 | 3.0 | 9.0 | 0.00 | 0.01 | 0.00 | 72 | 1017.6 |
| 20260507180018 | 64 | 355 | 3.0 | 9.0 | 0.00 | 0.01 | 0.00 | 73 | 1017.6 |
| 20260507175518 | 63 | 32 | 4.0 | 9.0 | 0.00 | 0.01 | 0.00 | 73 | 1017.6 |
| 20260507175016 | 63 | 102 | 4.0 | 10.0 | 0.00 | 0.01 | 0.00 | 73 | 1017.4 |
| 20260507174519 | 63 | 42 | 4.0 | 10.0 | 0.00 | 0.01 | 0.00 | 74 | 1017.4 |
| 20260507174017 | 62 | 24 | 5.0 | 12.0 | 0.00 | 0.01 | 0.00 | 74 | 1017.3 |
| 20260507173517 | 62 | 19 | 4.0 | 12.0 | 0.00 | 0.01 | 0.00 | 74 | 1017.7 |
| 20260507173015 | 62 | 10 | 2.0 | 10.0 | 0.00 | 0.01 | 0.00 | 75 | 1017.8 |
| 20260507172745 | 62 | 42 | 3.0 | 8.0 | 0.00 | 0.01 | 0.00 | 75 | 1017.9 |
| 20260507172242 | 62 | 67 | 3.0 | 8.0 | 0.00 | 0.01 | 0.00 | 75 | 1017.8 |
| 20260507171506 | 62 | 5 | 3.0 | 8.0 | 0.00 | 0.01 | 0.00 | 75 | 1017.9 |
| 20260507171000 | 62 | 42 | 3.0 | 10.0 | 0.00 | 0.01 | 0.00 | 75 | 1017.8 |
| 20260507170451 | 61 | 55 | 4.0 | 11.0 | 0.00 | 0.01 | 0.00 | 76 | 1018.0 |
| 20260507165946 | 61 | 56 | 4.0 | 11.0 | 0.00 | 0.01 | 0.00 | 76 | 1018.0 |
| 20260507165439 | 61 | 342 | 3.0 | 10.0 | 0.00 | 0.01 | 0.00 | 77 | 1018.4 |
| 20260507164933 | 61 | 54 | 3.0 | 10.0 | 0.00 | 0.01 | 0.00 | 77 | 1018.4 |
| 20260507164427 | 61 | 355 | 3.0 | 11.0 | 0.00 | 0.01 | 0.00 | 78 | 1018.2 |
| 20260507163920 | 61 | 355 | 3.0 | 11.0 | 0.00 | 0.01 | 0.00 | 78 | 1018.2 |
| 20260507163414 | 61 | 11 | 3.0 | 9.0 | 0.00 | 0.01 | 0.00 | 78 | 1018.0 |
| 20260507163139 | 61 | 5 | 2.0 | 8.0 | 0.00 | 0.01 | 0.00 | 79 | 1018.2 |
| 20260507162404 | 61 | 350 | 3.0 | 14.0 | 0.00 | 0.01 | 0.00 | 79 | 1018.6 |
| 20260507161856 | 60 | 5 | 5.0 | 15.0 | 0.00 | 0.01 | 0.00 | 79 | 1018.2 |
| 20260507161623 | 61 | 326 | 4.0 | 15.0 | 0.00 | 0.01 | 0.00 | 79 | 1018.5 |
| 20260507160845 | 61 | 5 | 3.0 | 10.0 | 0.00 | 0.01 | 0.00 | 80 | 1019.0 |
| 20260507160338 | 61 | 316 | 3.0 | 10.0 | 0.00 | 0.01 | 0.00 | 80 | 1019.1 |
| 20260507160103 | 61 | 349 | 4.0 | 10.0 | 0.00 | 0.01 | 0.00 | 80 | 1018.8 |